Flag for Canada Weather past 2 weeks in Windsor, Ontario, Canada

Now
70 °F

Scattered clouds.


Feels Like: 70 °F
Forecast: 60 / 75 °F
Wind: 13 mph from Northeast

Location: Windsor Weather Station

Current Time: Jul 24, 2014 at 11:35:43 AM

Latest Report: Jul 24, 2014 at 11:00 AM


Visibility: 15 mi

Pressure: 30.12 "Hg

Humidity: 57%

Dew point: 54 °F

Location of WindsorLocation

Historic Weather in Windsor — Graph

°F

Windsor temperature yesterday

Maximum temperature yesterday: 79 °F (at 12:00 AM)
Minimum temperature yesterday: 63 °F (at 11:00 PM)
Average temperature yesterday: 70 °F

Past Weeks' High & Low Weather Summary

 TemperatureHumidityPressure
High88 °F (Jul 22, 7:00 PM)100% (Jul 20, 1:00 AM)30.25 "Hg (Jul 20, 1:00 AM)
Low55 °F (Jul 16, 6:00 AM)36% (Jul 17, 3:00 PM)29.70 "Hg (Jul 15, 4:00 AM)
Average70 °F70%30.02 "Hg
* Reported Jul 9 10:00 AM — Jul 24 10:00 AM, Windsor, Weather by CustomWeather, © 2014

Note: Actual official high and low records may vary slightly from our data, if they occured in-between our weather recording intervals... More about our weather records

Advertising

Windsor weather history for previous 24 hours

 ConditionsComfort  
Time TempWeatherWind HumidityBarometerVisibility
10:00 AM
Jul 24
68 °FPassing clouds.12 mph69%30.12 "Hg15 mi
9:00 AM64 °FPassing clouds.10 mph83%30.11 "Hg15 mi
8:00 AM61 °FPassing clouds.8 mph83%30.11 "Hg15 mi
7:00 AM59 °FPassing clouds.9 mph82%30.09 "Hg15 mi
6:00 AM57 °FPassing clouds.8 mph88%30.08 "Hg15 mi
5:00 AM59 °FPassing clouds.8 mph77%30.06 "Hg15 mi
4:00 AM61 °FPassing clouds.9 mph68%30.06 "Hg15 mi
3:00 AM59 °FPassing clouds.8 mph72%30.06 "Hg15 mi
2:00 AM59 °FPassing clouds.8 mph72%30.07 "Hg15 mi
1:00 AM61 °FPassing clouds.8 mph72%30.07 "Hg15 mi
12:00 AM61 °FPassing clouds.10 mph72%30.08 "Hg15 mi
11:00 PM
Jul 23
63 °FPassing clouds.12 mph73%30.08 "Hg15 mi
10:00 PM64 °FPassing clouds.13 mph73%30.07 "Hg15 mi
9:00 PM64 °FPassing clouds.9 mph78%30.06 "Hg15 mi
8:00 PM66 °FPassing clouds.12 mph78%30.05 "Hg15 mi
7:00 PM68 °FPartly sunny.14 mph64%30.04 "Hg15 mi
6:00 PM70 °FPartly sunny.10 mph60%30.03 "Hg15 mi
5:00 PM70 °FPartly sunny.15 mph64%30.03 "Hg15 mi
4:00 PM70 °FPartly sunny.14 mph64%30.04 "Hg15 mi
3:00 PM70 °FPartly sunny.14 mph69%30.05 "Hg15 mi
2:00 PM72 °FPartly sunny.9 mph61%30.04 "Hg15 mi
1:00 PM68 °FOvercast.13 mph73%30.03 "Hg15 mi
12:00 PM68 °FOvercast.14 mph73%30.01 "Hg15 mi
11:00 AM68 °FOvercast.12 mph78%29.99 "Hg15 mi
Weather by CustomWeather, © 2014

See weather overviewHow to use our weather pages